Weather History for KSGF - January, 2014

Change the Weather History Date:

Monday, January 27, 2014

  Actual Average Record
Temperature  
Mean Temperature 23 °F 33 °F  
Max Temperature 33 °F 44 °F 67 °F (1914)
Min Temperature 12 °F 22 °F -7 °F (1963)
Degree Days  
Heating Degree Days 42 32  
Month to date heating degree days 958 879  
Since 1 July heating degree days 2881 2689  
Cooling Degree Days 0 0  
Month to date cooling degree days 0 0  
Year to date cooling degree days 0 0  
Moisture  
Dew Point -6 °F    
Average Humidity 37    
Maximum Humidity 46    
Minimum Humidity 28    
Precipitation  
Precipitation 0.00 in 0.07 in 1.49 in (1968)
Month to date precipitation 1.26 2.16  
Year to date precipitation 1.26 2.16  
Snow  
Snow 0.00 in - - ()
Month to date snowfall 9.5  
Since 1 July snowfall 23.0  
Snow Depth 0.00 in    
Sea Level Pressure  
Sea Level Pressure 30.37 in    
Wind  
Wind Speed 17 mph (North)    
Max Wind Speed 33 mph    
Max Gust Speed 41 mph    
Visibility 10 miles    
Events      
T = Trace of Precipitation, MM = Missing Value Source: NWS Daily Summary

Daily Weather History Graph

Daily Weather History Graph

Search for Another Location

Airport or City:

Trip Planner

Search our weather history database for the weather conditions in past years. The results will help you decide how hot, cold, wet, or windy it might be!

Date:

Astronomy

Jan. 27, 2014 Rise Set
Actual Time 7:20 AM CST 5:32 PM CST
Civil Twilight 6:52 AM CST 6:00 PM CST
Nautical Twilight 6:21 AM CST 6:31 PM CST
Astronomical Twilight 5:50 AM CST 7:02 PM CST
Moon 4:01 AM CST 2:20 PM CST
Length of Visible Light 11h 07m
Length of Day
10h 12m
Waning Crescent, 14% of the Moon is Illuminated
Jan 27
Waning Crescent
Jan 30
New
Feb 6
First Quarter
Feb 14
Full
Feb 22
Last Quarter

Hourly Weather History & Observations

Time (CST) Temp. Windchill Dew Point Humidity Pressure Visibility Wind Dir Wind Speed Gust Speed Precip Events Conditions
12:52 AM 28.9 °F 14.3 °F 10.9 °F 47% 30.08 in 10.0 mi North 26.5 mph 38.0 mph N/A   Overcast
1:52 AM 25.0 °F 8.9 °F 7.0 °F 46% 30.13 in 10.0 mi North 26.5 mph 33.4 mph N/A   Overcast
2:52 AM 23.0 °F 6.9 °F 1.9 °F 40% 30.17 in 10.0 mi North 24.2 mph 34.5 mph N/A   Overcast
3:52 AM 19.9 °F 1.8 °F -0.9 °F 40% 30.22 in 10.0 mi North 27.6 mph 34.5 mph N/A   Overcast
4:52 AM 19.0 °F 2.7 °F -2.0 °F 40% 30.25 in 10.0 mi North 20.7 mph 27.6 mph N/A   Overcast
5:52 AM 17.1 °F -0.6 °F -2.9 °F 41% 30.30 in 10.0 mi North 23.0 mph 31.1 mph N/A   Overcast
6:52 AM 16.0 °F -1.7 °F -2.9 °F 43% 30.32 in 10.0 mi North 21.9 mph 27.6 mph N/A   Overcast
7:52 AM 15.1 °F -2.0 °F -4.0 °F 43% 30.35 in 10.0 mi NNW 19.6 mph - N/A   Overcast
8:52 AM 14.0 °F -2.0 °F -7.1 °F 39% 30.37 in 10.0 mi North 16.1 mph - N/A   Overcast
9:52 AM 14.0 °F -3.4 °F -7.1 °F 39% 30.41 in 10.0 mi North 19.6 mph - N/A   Overcast
10:52 AM 16.0 °F 1.7 °F -8.0 °F 34% 30.43 in 10.0 mi North 13.8 mph - N/A   Clear
11:52 AM 16.0 °F 1.7 °F -9.0 °F 32% 30.43 in 10.0 mi NNW 13.8 mph - N/A   Clear
12:52 PM 18.0 °F 3.1 °F -11.0 °F 27% 30.42 in 10.0 mi NNW 16.1 mph 21.9 mph N/A   Clear
1:52 PM 16.0 °F 1.7 °F -11.0 °F 30% 30.41 in 10.0 mi NW 13.8 mph 23.0 mph N/A   Clear
2:52 PM 16.0 °F 0.1 °F -9.9 °F 31% 30.40 in 10.0 mi NNW 17.3 mph - N/A   Clear
3:52 PM 16.0 °F 0.6 °F -9.9 °F 31% 30.41 in 10.0 mi NNW 16.1 mph - N/A   Overcast
4:52 PM 15.1 °F 0.5 °F -9.0 °F 34% 30.42 in 10.0 mi North 13.8 mph - N/A   Overcast
5:52 PM 15.1 °F 1.8 °F -8.0 °F 36% 30.45 in 10.0 mi North 11.5 mph - N/A   Overcast
6:52 PM 15.1 °F -0.1 °F -8.0 °F 36% 30.43 in 10.0 mi North 15.0 mph - N/A   Mostly Cloudy
7:52 PM 15.1 °F 2.5 °F -7.1 °F 37% 30.45 in 10.0 mi North 10.4 mph - N/A   Mostly Cloudy
8:52 PM 14.0 °F 1.2 °F -7.1 °F 39% 30.45 in 10.0 mi North 10.4 mph - N/A   Clear
9:52 PM 14.0 °F -0.2 °F -7.1 °F 39% 30.47 in 10.0 mi NNE 12.7 mph - N/A   Mostly Cloudy
10:52 PM 12.9 °F -0.9 °F -8.0 °F 39% 30.48 in 10.0 mi NNE 11.5 mph - N/A   Partly Cloudy
11:52 PM 12.0 °F -2.0 °F -8.0 °F 41% 30.48 in 10.0 mi NNE 11.5 mph - N/A   Mostly Cloudy